Regional Weather Roundup
Issued by NWS

Home | Current Version | Previous Version | Text Only | Print | Product List | Glossary On
Versions: 1 2 3 4 5 6 7 8 9 10 11 12 13 14 15 16 17 18 19 20 21 22 23 24 25 26 27 28 29 30 31 32 33 34 35 36 37 38 39 40 41 42 43 44 45 46 47 48 49 50
000
ASUS43 KMKX 281920
RWRWI

WISCONSIN REGIONAL WEATHER ROUNDUP
NATIONAL WEATHER SERVICE MILWAUKEE/SULLIVAN WI
100 PM CST WED JAN 28 2015

NOTE: "FAIR" INDICATES FEW OR NO CLOUDS BELOW 12,000 FEET WITH NO
SIGNIFICANT WEATHER AND/OR OBSTRUCTIONS TO VISIBILITY.

WIZ001-002-006>008-014>016-023>028-282000-
NORTHWEST WISCONSIN

CITY           SKY/WX    TMP DP  RH WIND       PRES   REMARKS
SUPERIOR ARPT  CLOUDY    30  24  77 S8        29.91F WCI  23
ASHLAND        PTSUNNY   32  23  69 S7        29.93F WCI  26
HAYWARD        CLOUDY    28  22  78 S14       29.91F HAZE    WCI  17
SIREN          CLOUDY    30  24  79 S14       29.89F HAZE    WCI  19
CUMBERLAND     CLOUDY    28  23  80 SE12G17   29.92F FOG     WCI  18
RICE LAKE      CLOUDY    28  24  84 SE14      29.95F FOG     WCI  17
CHETEK         CLOUDY    28  24  84 SE16G24   29.95F HAZE    WCI  16
LADYSMITH      CLOUDY    28  24  84 SE10      29.97F FOG     WCI  19
EAU CLAIRE     CLOUDY    29  23  78 SE12      29.96F HAZE    WCI  19
MENOMONIE      CLOUDY    30  25  83 SE13      29.95F HAZE    WCI  20
NEW RICHMOND   CLOUDY    29  24  84 SE13      29.91F HAZE    WCI  18
OSCEOLA        CLOUDY    29  26  86 SE13      29.93F FOG     WCI  19
$$

WIZ003>005-009-010-017-018-282000-
NORTH CENTRAL WISCONSIN

CITY           SKY/WX    TMP DP  RH WIND       PRES   REMARKS
MANITOWISH WTR CLOUDY    26  21  82 SE8       29.95F WCI  18
ARBOR VITAE    PTSUNNY   28  22  80 SE9G20    29.96F WCI  19
WOODRUFF       PTSUNNY   28  22  80 SE9G20    29.96F WCI  19
RHINELANDER    PTSUNNY   27  20  75 S10G16    29.98F WCI  17
EAGLE RIVER    PTSUNNY   28  19  71 S9G18     29.97F WCI  19
LAND O LAKES   PTSUNNY   28  22  76 S9        29.97F WCI  19
PHILLIPS       CLOUDY    26  22  83 SE9       29.94F WCI  17
TOMAHAWK       PTSUNNY   28  20  73 CALM      29.97F
MEDFORD        CLOUDY    24  21  87 SE9       29.97F WCI  15
MERRILL        PTSUNNY   30  21  69 SE12      30.00F WCI  20
$$

WIZ029-030-035-036-043>047-282000-
CENTRAL WISCONSIN

CITY           SKY/WX    TMP DP  RH WIND       PRES   REMARKS
WAUSAU         PTSUNNY   27  20  75 S14       30.00F WCI  16
MOSINEE        CLOUDY    27  23  86 SE12      30.02F WCI  16
MARSHFIELD     CLOUDY    25  22  88 SE14      30.00F FOG     WCI  13
STEVENS POINT  CLOUDY    26  20  79 SE10G17   30.04F WCI  16
WAUPACA        PTSUNNY   33  22  63 S10       30.08F WCI  25
WAUTOMA        PTSUNNY   30  22  72 S10       30.07F WCI  21
WISC RAPIDS    CLOUDY    27  21  78 SE10      30.03F WCI  17
CAMP DOUGLAS   CLOUDY    28  28 100 SE12      30.02F WCI  18
$$

WIZ011>013-019>022-031-037>040-048>050-282000-
NORTHEAST WISCONSIN

CITY           SKY/WX    TMP DP  RH WIND       PRES   REMARKS
ANTIGO         PTSUNNY   26  20  80 SE15      30.02F WCI  13
SHAWANO        PTSUNNY   32  20  62 S9G17     30.09F WCI  24
OCONTO         PTSUNNY   31  22  72 S8        30.12F WCI  23
STURGEON BAY   CLOUDY    30  23  74 S16       30.13F WCI  19
GREEN BAY      PTSUNNY   31  23  72 S10       30.11F WCI  22
MANITOWOC      CLOUDY    31  27  85 S18G29    30.13F WCI  19
APPLETON       CLOUDY    30  19  64 S12       30.11F WCI  21
CLINTONVILLE   CLOUDY    30  21  69 S13       30.09F WCI  20
OSHKOSH        PTSUNNY   30  21  69 S14G22    30.10F WCI  19
$$

WIZ032>034-041-042-053>061-282000-
SOUTHWEST WISCONSIN

CITY           SKY/WX    TMP DP  RH WIND       PRES   REMARKS
LA CROSSE      CLOUDY    32  26  78 SE9       29.98F HAZE    WCI  24
SPARTA         CLOUDY    29  25  84 SE7       30.02F FOG     WCI  22
VIROQUA        CLOUDY    30  28  94 SE13G18   29.97F WCI  20
BOSCOBEL       PTSUNNY   34  23  64 SE9       30.02F WCI  27
PRAIRIE DU CHI PTSUNNY   34  24  67 E14       29.98F WCI  24
PLATTEVILLE    CLOUDY    32  23  70 E14       30.01F WCI  22
$$

WIZ056-057-062-063-064-067-068-282000-
SOUTH CENTRAL WISCONSIN

CITY           SKY/WX    TMP DP  RH WIND       PRES   REMARKS
REEDSBURG      CLOUDY    29  24  82 SE8       30.04F WCI  21
BARABOO/DELLS  CLOUDY    29  24  80 SE13      30.04F WCI  19
LONE ROCK      CLOUDY    33  21  61 SE13      30.04F WCI  24
MINERAL POINT  PTSUNNY   32  21  64 SE18G25   30.01F WCI  20
MADISON        CLOUDY    31  21  66 S16       30.07F WCI  20
MIDDLETON      PTSUNNY   33  22  65 SE9       30.06F WCI  25
WATERTOWN      PTSUNNY   32  20  62 S12       30.10F WCI  23
MONROE         PTSUNNY   32  23  69 SE12G20   30.05F WCI  23
JANESVILLE     SUNNY     34  21  60 S17       30.10F WCI  23
$$

WIZ051-052-058>065-066-070>072-282000-
SOUTHEAST WISCONSIN

CITY           SKY/WX    TMP DP  RH WIND       PRES   REMARKS
MILWAUKEE      PTSUNNY   34  17  50 S9        30.14F WCI  27
WAUKESHA       SUNNY     30  19  64 SE14      30.13F WCI  20
MILWAUKEE/TIMM SUNNY     34  18  51 S8        30.14F WCI  27
RACINE         MOSUNNY   31  19  61 S16       30.16F WCI  20
BURLINGTON     PTSUNNY   32  17  54 S8G18     30.12F WCI  25
KENOSHA        PTSUNNY   34  18  52 S12       30.14F WCI  25
FOND DU LAC    PTSUNNY   30  20  66 S13       30.10F WCI  20
SHEBOYGAN      PTSUNNY   31  23  72 S14       30.13F WCI  21
WEST BEND      PTSUNNY   32  21  64 S8        30.11F WCI  25
JUNEAU         PTSUNNY   31  20  64 S12       30.10F WCI  21
$$

LSZ147-162-282000-
LAKE SUPERIOR

STATION/POSITION TIME  TEMP    WIND        PRES    WAVE
                       AIR SEA DIR/SP/G            HT/PER
                 (UTC) (F)     (DEG/KT/KT) (MB)    (FT/S)
DEVILS ISLAND    1900   29     150/  4/  6 1014.4F
PORT WING        1800   32     130/  1/  6 1014.6F
SAXON HARBOR     1800   33     170/  1/  7 1014.9F
$$

LMZ867-665-643>646-282000-
LAKE MICHIGAN

STATION/POSITION TIME  TEMP    WIND        PRES    WAVE
                       AIR SEA DIR/SP/G            HT/PER
                 (UTC) (F)     (DEG/KT/KT) (MB)    (FT/S)
NORTHPORT PIER   1807   29     150/  4/  8 1021.3F
SISTER BAY       1843   33     210/ 17/ 20   N/A
KEWAUNEE LAKESHO 1800   30                 1020.5F
SHEBOYGAN LAKESH 1900   30     190/ 22/ 25 1021.4F
PORT WASHINGTON  1840   32     170/ 16/ 20 1021.7F
MILWAUKEE LAKESH 1900   30     150/ 18/ 20   N/A
KENOSHA   LAKESH 1900   31     170/ 17/ 19 1021.0F
$$

TC  - TEMPERATURE IN CELSIUS
VSB - VISIBILITY IN STATUTE MILES
WCI - WIND CHILL INDEX
HX  - HEAT INDEX




USA.gov is the U.S. government's official web portal to all federal, state and local government web resources and services.